[[{"header":{"parameterUnit":"m.s-1","parameterCategory":1,"la1":30.2991,"la2":30.254,"lo1":-89.0895,"lo2":-89.0444,"dy":0.0017,"dx":0.0017,"nx":28,"ny":28,"refTime":"2023-08-24T21:00:00:Z","depth":0,"parameterNumber":2,"parameterNumberName":"U-component_of_WINDS"},"data":[0,0,0,0,0,0,0,0,0,0,0,0,0,0,0,0,0,0,0,0,0,0,0,0,0,0,0,0,0,0,0,0,0,0,0,0,0,0,0,0,0,0,0,0,0,0,0,0,0,0,0,0,0,0,0,0,0,0,-2.2666,-2.2666,0,-2.2682,-2.2682,-2.2682,-2.2647,-2.2645,-2.2644,-2.2643,-2.2661,-2.2662,-2.2664,0,0,0,0,0,0,0,0,0,0,0,0,0,-2.2607,-2.2608,-2.2666,-2.2666,-2.2666,-2.2682,-2.2682,-2.2682,-2.2647,-2.2645,-2.2644,-2.2643,-2.266,-2.2662,-2.2664,0,0,0,0,0,0,0,0,0,0,0,0,0,-2.2629,-2.2608,-2.2666,-2.265,-2.2649,-2.2682,-2.2682,-2.2682,-2.2647,-2.2645,-2.2644,-2.2642,-2.266,-2.2662,-2.2664,-2.2713,0,0,-2.2671,-2.2672,0,0,0,0,0,0,0,0,-2.2627,-2.2631,-2.2652,-2.2652,-2.265,-2.266,-2.2668,-2.2693,-2.2648,-2.2648,-2.2643,-2.2641,-2.2662,-2.2664,-2.2671,-2.2714,-2.2714,-2.2671,-2.2673,-2.2674,-2.2674,0,0,0,0,0,0,0,-2.2626,-2.263,-2.2672,-2.2653,-2.2651,-2.2643,-2.2645,-2.2672,-2.2665,-2.2648,-2.2645,-2.2648,-2.2661,-2.2669,-2.2671,-2.2715,-2.2671,-2.2673,-2.2675,-2.2676,-2.2799,-2.2801,0,0,0,0,0,0,-2.2626,-2.2629,-2.2672,-2.2673,-2.2634,-2.2646,-2.2647,-2.2659,-2.2664,-2.2663,-2.2649,-2.2646,-2.2666,-2.2668,-2.2672,-2.2729,-2.2674,-2.2676,-2.2677,-2.2797,-2.28,-2.2802,0,0,0,0,0,0,-2.2625,-2.263,-2.2671,-2.265,-2.2655,-2.2649,-2.2662,-2.266,-2.2668,-2.2665,-2.2664,-2.2658,-2.2664,-2.2668,-2.2703,-2.2729,-2.2677,-2.2679,-2.2795,-2.2798,-2.2801,-2.2845,0,0,0,0,0,0,-2.2623,-2.263,-2.2648,-2.2651,-2.2656,-2.2702,-2.2664,-2.2662,-2.2672,-2.2668,-2.2673,-2.2672,-2.2663,-2.27,-2.2705,-2.2732,-2.2681,-2.2793,-2.2796,-2.28,-2.2841,-2.2849,-2.2855,0,0,0,0,0,-2.2621,-2.266,-2.2649,-2.2654,-2.2678,-2.2703,-2.2706,-2.2695,-2.2674,-2.2692,-2.2691,-2.2672,-2.2726,-2.2704,-2.271,-2.2737,-2.2791,-2.2795,-2.28,-2.2838,-2.2847,-2.2855,0,0,0,0,0,0,-2.266,-2.266,-2.2648,-2.2688,-2.2696,-2.2697,-2.272,-2.2705,-2.2719,-2.2715,-2.2701,-2.2702,-2.274,-2.2742,-2.2717,-2.2785,-2.2755,-2.2761,-2.2782,-2.2791,-2.2798,-2.2797,-2.2683,0,0,0,0,0,-2.2673,-2.2693,-2.2692,-2.2728,-2.2732,-2.2726,-2.2736,-2.2727,-2.2734,-2.2738,-2.2739,-2.2747,-2.2766,-2.2779,-2.2796,-2.2841,-2.2842,-2.2863,-2.2871,-2.2877,-2.2881,-2.2907,-2.2916,-2.2816,-2.2816,-2.2816,0,0,-2.2701,-2.2703,-2.2717,-2.2736,-2.2741,-2.2762,-2.2728,-2.2753,-2.2769,-2.2741,-2.2774,-2.2775,-2.2784,-2.2825,-2.2843,-2.2828,-2.291,-2.2882,-2.2887,-2.2888,-2.2912,-2.2921,-2.293,-2.2819,-2.2818,-2.2818,0,0,-2.2762,-2.2765,-2.2796,-2.2802,-2.281,-2.2805,-2.2813,-2.2816,-2.2816,-2.2849,-2.2829,-2.2848,-2.2881,-2.2888,-2.2896,-2.2962,-2.2946,-2.2968,-2.3006,-2.303,-2.3038,-2.3045,-2.3069,-2.3077,-2.2973,-2.2973,-2.2973,0,-2.2795,-2.2826,-2.2813,-2.2839,-2.2848,-2.2825,-2.2856,-2.2862,-2.2876,-2.2883,-2.2866,-2.2907,-2.2912,-2.2954,-2.297,-2.2977,-2.2986,-2.2967,-2.3038,-2.3045,-2.3051,-2.3073,-2.3082,-2.2976,-2.2975,-2.2975,-2.2975,0,-2.2867,-2.2889,-2.2912,-2.2926,-2.2938,-2.2966,-2.2959,-2.2973,-2.2963,-2.296,-2.2995,-2.2999,-2.3017,-2.3027,-2.3017,-2.3068,-2.3059,-2.304,-2.301,-2.3063,-2.3084,-2.3093,-2.298,-2.2979,-2.2978,-2.2977,0,0,-2.2951,-2.2958,-2.2967,-2.2973,-2.2981,-2.2998,-2.3026,-2.3043,-2.3056,-2.3067,-2.309,-2.3119,-2.3102,-2.3111,-2.3103,-2.3125,-2.3177,-2.3103,-2.3103,-2.3117,-2.3234,-2.3247,-2.3257,-2.3167,-2.3168,-2.3169,-2.3233,0,-2.3012,-2.3059,-2.3048,-2.3095,-2.3116,-2.3095,-2.3119,-2.3127,-2.3126,-2.3144,-2.3143,-2.3164,-2.314,-2.3146,-2.3166,-2.3166,-2.32,-2.3161,-2.3189,-2.319,-2.3186,-2.3268,-2.3282,-2.3342,-2.3241,-2.3242,-2.3243,0,-2.3088,-2.3101,-2.315,-2.3155,-2.3163,-2.3185,-2.3201,-2.3218,-2.3228,-2.3225,-2.3237,-2.3224,-2.3253,-2.3223,-2.3263,-2.3237,-2.3248,-2.3249,-2.3251,-2.3253,-2.3219,-2.3272,-2.3361,-2.337,-2.3256,-2.3255,-2.3254,0,-2.3145,-2.3175,-2.3208,-2.3214,-2.3221,-2.3237,-2.3241,-2.3249,-2.326,-2.3274,-2.3282,-2.3299,-2.3309,-2.3323,-2.3316,-2.3295,-2.3358,-2.3327,-2.3357,-2.3357,-2.3371,-2.337,-2.3462,-2.3378,-2.3378,-2.3378,-2.3378,0,-2.3213,-2.3244,-2.3234,-2.3254,-2.3288,-2.3277,-2.3312,-2.3313,-2.332,-2.3341,-2.3324,-2.3344,-2.3334,-2.3354,-2.3349,-2.3383,-2.3388,-2.3387,-2.3385,-2.3389,-2.3389,-2.3395,-2.3391,-2.338,-2.338,-2.3379,-2.3379,0,-2.3282,-2.3277,-2.3312,-2.3316,-2.3317,-2.3342,-2.3346,-2.3366,-2.3364,-2.3391,-2.3396,-2.3394,-2.3416,-2.3411,-2.3436,-2.3433,-2.3475,-2.3469,-2.3472,-2.347,-2.3501,-2.3498,-2.3601,-2.3614,-2.3521,-2.3522,-2.3523,0,-2.3326,-2.3349,-2.3356,-2.3368,-2.3373,-2.3394,-2.3405,-2.3396,-2.3409,-2.3422,-2.344,-2.3461,-2.3477,-2.3515,-2.3515,-2.3534,-2.3528,-2.3563,-2.3531,-2.3533,-2.3529,-2.3527,-2.353,-2.3569,-2.357,-2.3571,-2.3571,0,-2.3405,-2.3401,-2.3418,-2.3435,-2.3449,-2.3462,-2.3473,-2.3485,-2.3476,-2.3492,-2.3514,-2.3527,-2.3553,-2.3574,-2.3592,-2.3597,-2.3583,-2.3582,-2.359,-2.3593,-2.3594,-2.3594,-2.3489,-2.3579,-2.3578,-2.3578,-2.3577,-2.3577,-2.3462,-2.3482,-2.349,-2.351,-2.3517,-2.3528,-2.3547,-2.3548,-2.3566,-2.3586,-2.3579,-2.3606,-2.3615,-2.3638,-2.3645,-2.3666,-2.3653,-2.3665,-2.3668,-2.3671,-2.3674,-2.3591,-2.3669,-2.3669,-2.3669,-2.3669,-2.3669,0,-2.354,-2.3544,-2.3563,-2.3579,-2.3595,-2.358,-2.3592,-2.3607,-2.363,-2.364,-2.3656,-2.3683,-2.3704,-2.3707,-2.3727,-2.3743,-2.3738,-2.3749,-2.3747,-2.3749,-2.3685,-2.3676,-2.3753,-2.3753,-2.3753,-2.3753,-2.3753,-2.3753,-2.3582,-2.3615,-2.3613,-2.3649,-2.3654,-2.3678,-2.3687,-2.3697,-2.3705,-2.3736,-2.3753,-2.3754,-2.3762,-2.3782,-2.3801,-2.3802,-2.381,-2.3824,-2.3822,-2.3762,-2.3753,-2.3745,-2.3737,-2.3826,-2.3826,-2.3884,-2.3885,-2.3885]},{"header":{"parameterUnit":"m.s-1","parameterCategory":1,"la1":30.2991,"la2":30.254,"lo1":-89.0895,"lo2":-89.0444,"dy":0.0017,"dx":0.0017,"nx":28,"ny":28,"refTime":"2023-08-24T21:00:00:Z","depth":0,"parameterNumber":3,"parameterNumberName":"V-component_of_WINDS"},"data":[0,0,0,0,0,0,0,0,0,0,0,0,0,0,0,0,0,0,0,0,0,0,0,0,0,0,0,0,0,0,0,0,0,0,0,0,0,0,0,0,0,0,0,0,0,0,0,0,0,0,0,0,0,0,0,0,0,0,3.096,3.096,0,3.096,3.096,3.096,3.0966,3.0966,3.0966,3.0966,3.0964,3.0963,3.0963,0,0,0,0,0,0,0,0,0,0,0,0,0,3.0963,3.0963,3.096,3.096,3.096,3.096,3.096,3.096,3.0966,3.0966,3.0966,3.0966,3.0964,3.0963,3.0963,0,0,0,0,0,0,0,0,0,0,0,0,0,3.0962,3.0963,3.096,3.0963,3.0963,3.096,3.096,3.096,3.0966,3.0966,3.0966,3.0966,3.0964,3.0963,3.0963,3.0956,0,0,3.0962,3.0962,0,0,0,0,0,0,0,0,3.0962,3.0962,3.0962,3.0962,3.0963,3.0963,3.096,3.0958,3.0966,3.0965,3.0966,3.0966,3.0963,3.0963,3.0962,3.0956,3.0956,3.0962,3.0962,3.0962,3.0961,0,0,0,0,0,0,0,3.0962,3.0962,3.096,3.0962,3.0963,3.0963,3.0964,3.096,3.0962,3.0965,3.0965,3.0965,3.0963,3.0962,3.0962,3.0956,3.0962,3.0962,3.0961,3.0961,3.0944,3.0944,0,0,0,0,0,0,3.0962,3.0962,3.096,3.096,3.0963,3.0963,3.0963,3.0963,3.0962,3.0963,3.0965,3.0965,3.0963,3.0962,3.0962,3.0954,3.0962,3.0961,3.0961,3.0945,3.0944,3.0944,0,0,0,0,0,0,3.0962,3.0962,3.096,3.0961,3.0961,3.0963,3.0962,3.0962,3.0962,3.0963,3.0963,3.0964,3.0963,3.0962,3.0958,3.0954,3.0961,3.0961,3.0945,3.0945,3.0944,3.0938,0,0,0,0,0,0,3.0962,3.0962,3.0959,3.0961,3.0961,3.0956,3.0962,3.0962,3.0962,3.0962,3.0962,3.0962,3.0963,3.0958,3.0957,3.0954,3.0961,3.0945,3.0945,3.0944,3.0939,3.0938,3.0937,0,0,0,0,0,3.0962,3.0957,3.0959,3.0959,3.0958,3.0956,3.0955,3.0958,3.0961,3.0959,3.0959,3.0962,3.0955,3.0958,3.0957,3.0953,3.0945,3.0945,3.0944,3.0939,3.0938,3.0937,0,0,0,0,0,0,3.0953,3.0957,3.096,3.0955,3.0955,3.0957,3.0953,3.0956,3.0955,3.0955,3.0958,3.0958,3.0953,3.0952,3.0956,3.0947,3.0951,3.095,3.0947,3.0946,3.0945,3.0945,3.096,0,0,0,0,0,3.0951,3.095,3.0953,3.0948,3.0948,3.0951,3.095,3.0952,3.0952,3.0952,3.0952,3.0951,3.0949,3.0947,3.0945,3.0939,3.0939,3.0936,3.0935,3.0934,3.0933,3.093,3.0929,3.0942,3.0942,3.0942,0,0,3.0946,3.0948,3.0947,3.0947,3.0947,3.0945,3.0951,3.0948,3.0947,3.0951,3.0947,3.0948,3.0947,3.0941,3.0939,3.0941,3.093,3.0933,3.0933,3.0932,3.0929,3.0928,3.0927,3.0942,3.0942,3.0942,0,0,3.0936,3.0937,3.0934,3.0935,3.0936,3.0938,3.0937,3.0939,3.0939,3.0936,3.0939,3.0937,3.0933,3.0933,3.0932,3.0923,3.0925,3.0922,3.0917,3.0914,3.0913,3.0912,3.0909,3.0907,3.0921,3.0921,3.0921,0,3.0929,3.0927,3.0932,3.0929,3.0929,3.0935,3.0931,3.0931,3.0931,3.0931,3.0933,3.0929,3.0929,3.0924,3.0922,3.0921,3.092,3.0922,3.0913,3.0912,3.0911,3.0908,3.0907,3.0921,3.0921,3.0921,3.0921,0,3.0919,3.0918,3.0915,3.0916,3.0915,3.0912,3.0916,3.0915,3.0917,3.0919,3.0915,3.0916,3.0914,3.0913,3.0915,3.0908,3.091,3.0912,3.0916,3.0909,3.0906,3.0905,3.092,3.0921,3.0921,3.0921,0,0,3.0902,3.0907,3.0906,3.0907,3.0909,3.0908,3.0905,3.0905,3.0904,3.0904,3.0902,3.0899,3.0902,3.0901,3.0903,3.09,3.0894,3.0903,3.0903,3.0901,3.0886,3.0884,3.0883,3.0895,3.0895,3.0895,3.0887,0,3.0893,3.0889,3.0894,3.0889,3.0888,3.0893,3.0891,3.0892,3.0894,3.0893,3.0894,3.0892,3.0896,3.0896,3.0894,3.0895,3.089,3.0896,3.0893,3.0892,3.0892,3.0881,3.0879,3.0871,3.0885,3.0885,3.0885,0,3.088,3.0881,3.0877,3.088,3.088,3.0878,3.0878,3.0877,3.0879,3.088,3.088,3.0883,3.088,3.0885,3.0881,3.0884,3.0884,3.0884,3.0884,3.0883,3.0888,3.088,3.0868,3.0867,3.0883,3.0884,3.0884,0,3.0869,3.0869,3.0866,3.0867,3.0871,3.0869,3.0871,3.0872,3.0872,3.0872,3.0872,3.0872,3.0871,3.087,3.0873,3.0876,3.0869,3.0874,3.087,3.087,3.0867,3.0867,3.0855,3.0867,3.0867,3.0867,3.0867,0,3.0857,3.0854,3.0861,3.086,3.0857,3.0862,3.0858,3.086,3.0862,3.0861,3.0865,3.0864,3.0868,3.0866,3.0868,3.0865,3.0865,3.0865,3.0866,3.0865,3.0865,3.0864,3.0864,3.0867,3.0867,3.0867,3.0867,0,3.0843,3.0848,3.0846,3.085,3.0851,3.0849,3.0852,3.0851,3.0854,3.0852,3.0852,3.0855,3.0854,3.0857,3.0856,3.0857,3.0853,3.0854,3.0853,3.0853,3.0849,3.0849,3.0835,3.0833,3.0847,3.0847,3.0847,0,3.0835,3.0833,3.0838,3.0838,3.084,3.0839,3.084,3.0845,3.0845,3.0847,3.0845,3.0844,3.0844,3.0842,3.0844,3.0844,3.0845,3.084,3.0845,3.0844,3.0845,3.0845,3.0845,3.0839,3.0839,3.0839,3.0838,0,3.0821,3.0824,3.0824,3.0826,3.0826,3.0828,3.0829,3.0829,3.0834,3.0834,3.0833,3.0833,3.0833,3.0833,3.0833,3.0834,3.0837,3.0837,3.0836,3.0835,3.0834,3.0834,3.085,3.0837,3.0837,3.0837,3.0837,3.0838,3.0809,3.0808,3.0812,3.0813,3.0815,3.0816,3.0815,3.0819,3.0819,3.082,3.0823,3.0822,3.0823,3.0824,3.0825,3.0824,3.0826,3.0824,3.0824,3.0823,3.0823,3.0835,3.0824,3.0824,3.0824,3.0824,3.0824,0,3.0795,3.0798,3.0799,3.0802,3.0802,3.0807,3.0809,3.0809,3.0808,3.081,3.0811,3.081,3.081,3.0813,3.0813,3.0812,3.0813,3.0811,3.0811,3.0811,3.0821,3.0822,3.081,3.081,3.081,3.081,3.081,3.081,3.0788,3.0786,3.079,3.0789,3.0792,3.0792,3.0793,3.0794,3.0796,3.0796,3.0796,3.0799,3.0801,3.0801,3.0801,3.0802,3.0802,3.0799,3.0801,3.0809,3.0811,3.0812,3.0813,3.0799,3.0799,3.0791,3.0791,3.0791]}]]